LTAC Weather Reports


time (UTC)temp
C
wind
direction
speed
KPH
gust
KPH
rain 1hr
cm
rain 24hr
cm
rain mn
cm
humidity
%
barometer
mb
20260906110003 28 190 12.9 0.0 0.00 0.00 0.00 21 1018.0
20260906104503 28 0 9.7 0.0 0.00 0.00 0.00 23 1018.0
20260906103003 28 0 9.7 0.0 0.00 0.00 0.00 23 1018.0
20260906100004 27 0 8.0 0.0 0.00 0.00 0.00 26 1019.0
20260906093004 27 200 11.3 0.0 0.00 0.00 0.00 28 1019.0
20260906090004 26 270 8.0 0.0 0.00 0.00 0.00 34 1019.0
20260906083003 25 0 4.8 0.0 0.00 0.00 0.00 36 1019.0
20260906074503 22 0 3.2 0.0 0.00 0.00 0.00 38 1019.0
20260906071504 21 100 4.8 0.0 0.00 0.00 0.00 43 1019.0
20260906070004 21 100 4.8 0.0 0.00 0.00 0.00 43 1019.0
20260906063004 18 20 8.0 0.0 0.00 0.00 0.00 45 1019.0
20260906061503 17 20 8.0 0.0 0.00 0.00 0.00 45 1020.0
20260906060003 17 20 8.0 0.0 0.00 0.00 0.00 45 1020.0
20260906053004 16 30 8.0 0.0 0.00 0.00 0.00 48 1019.0
20260906050004 13 30 8.0 0.0 0.00 0.00 0.00 54 1019.0
20260906044503 12 0 1.6 0.0 0.00 0.00 0.00 54 1019.0
20260906041503 13 180 4.8 0.0 0.00 0.00 0.00 50 1019.0
20260906040004 13 180 4.8 0.0 0.00 0.00 0.00 50 1019.0
20260906031503 12 0 1.6 0.0 0.00 0.00 0.00 58 1019.0
20260906030004 12 0 1.6 0.0 0.00 0.00 0.00 58 1019.0
20260906021503 15 0 4.8 0.0 0.00 0.00 0.00 47 1019.0
20260906020004 15 0 4.8 0.0 0.00 0.00 0.00 47 1019.0
20260906014504 15 360 4.8 0.0 0.00 0.00 0.00 51 1019.0
20260906013003 15 360 4.8 0.0 0.00 0.00 0.00 51 1019.0
20260906011503 16 0 1.6 0.0 0.00 0.00 0.00 48 1019.0
20260906010004 16 0 1.6 0.0 0.00 0.00 0.00 48 1019.0
20260906003003 17 0 4.8 0.0 0.00 0.00 0.00 45 1019.0
20260906001503 17 0 4.8 0.0 0.00 0.00 0.00 48 1019.0
20260905234503 16 40 11.3 0.0 0.00 0.00 0.00 48 1019.0
20260905233004 16 40 11.3 0.0 0.00 0.00 0.00 48 1019.0
20260905230003 17 40 1.6 0.0 0.00 0.00 0.00 42 1019.0
20260905224503 17 50 1.6 0.0 0.00 0.00 0.00 42 1019.0
20260905220005 17 40 19.3 0.0 0.00 0.00 0.00 42 1019.0
20260905213004 18 30 19.3 0.0 0.00 0.00 0.00 39 1019.0
20260905210003 18 40 12.9 0.0 0.00 0.00 0.00 39 1019.0
20260905204504 20 30 9.7 0.0 0.00 0.00 0.00 34 1019.0
20260905201504 21 340 8.0 0.0 0.00 0.00 0.00 32 1019.0
20260905200004 21 340 8.0 0.0 0.00 0.00 0.00 32 1019.0
20260905193004 20 40 12.9 0.0 0.00 0.00 0.00 34 1019.0
20260905183004 22 80 11.3 0.0 0.00 0.00 0.00 28 1019.0
20260905180004 23 80 14.5 0.0 0.00 0.00 0.00 27 1018.0
20260905173004 25 80 12.9 0.0 0.00 0.00 0.00 25 1018.0
20260905171503 26 70 14.5 0.0 0.00 0.00 0.00 24 1018.0
20260905170004 26 70 14.5 0.0 0.00 0.00 0.00 24 1018.0
20260905163004 27 80 12.9 0.0 0.00 0.00 0.00 24 1018.0
20260905154503 28 30 8.0 0.0 0.00 0.00 0.00 25 1018.0
20260905150004 27 80 12.9 0.0 0.00 0.00 0.00 26 1018.0
20260905144503 28 50 11.3 0.0 0.00 0.00 0.00 23 1018.0
20260905140004 28 80 9.7 0.0 0.00 0.00 0.00 23 1018.0
20260905134503 27 0 9.7 0.0 0.00 0.00 0.00 24 1018.0
20260905133003 27 0 9.7 0.0 0.00 0.00 0.00 24 1018.0
20260905131503 28 0 8.0 0.0 0.00 0.00 0.00 23 1019.0
20260905130004 28 0 8.0 0.0 0.00 0.00 0.00 23 1019.0
20260905124504 27 50 9.7 0.0 0.00 0.00 0.00 26 1019.0
20260905123004 27 50 9.7 0.0 0.00 0.00 0.00 26 1019.0
20260905114503 27 0 8.0 0.0 0.00 0.00 0.00 24 1020.0